AAL435 CYVR-CYLW

Flight info

Callsign AAL435
Flight time 0h 35m
Altitude 27000
Route JANEK DCT SEKAB SEKAB5
Aircraft B738/M-SDGIJ1LRWY/SB1

Departure

Time 2026-05-01 11:08
Airport Vancouver International Airport (CYVR)

Arrival

Time 2026-05-01 11:44
Airport Kelowna International Airport (CYLW)
Time Latitude Longitude Altitude Speed Heading
2026-05-01 10:38 49.19534 -123.18622 18 ft 0 kts 100°
2026-05-01 10:54 49.19534 -123.18623 18 ft 0 kts 100°
2026-05-01 10:55 49.19538 -123.18644 18 ft 2 kts 124°
2026-05-01 10:55 49.19549 -123.18660 18 ft 2 kts 155°
2026-05-01 10:55 49.19563 -123.18665 18 ft 1 kts 185°
2026-05-01 10:55 49.19569 -123.18663 18 ft 1 kts 193°
2026-05-01 10:56 49.19572 -123.18662 18 ft 0 kts 190°
2026-05-01 10:59 49.19564 -123.18665 18 ft 3 kts 191°
2026-05-01 10:59 49.19539 -123.18672 18 ft 3 kts 192°
2026-05-01 10:59 49.19508 -123.18682 18 ft 6 kts 192°
2026-05-01 10:59 49.19463 -123.18697 18 ft 6 kts 197°
2026-05-01 11:00 49.19409 -123.18726 18 ft 8 kts 207°
2026-05-01 11:00 49.19384 -123.18807 18 ft 8 kts 259°
2026-05-01 11:00 49.19373 -123.18900 18 ft 8 kts 259°
2026-05-01 11:00 49.19361 -123.18996 17 ft 9 kts 260°
2026-05-01 11:01 49.19352 -123.19076 17 ft 4 kts 259°
2026-05-01 11:01 49.19348 -123.19106 17 ft 0 kts 259°
2026-05-01 11:01 49.19347 -123.19116 17 ft 2 kts 259°
2026-05-01 11:02 49.19340 -123.19166 17 ft 6 kts 259°
2026-05-01 11:02 49.19328 -123.19259 17 ft 11 kts 259°
2026-05-01 11:02 49.19311 -123.19395 18 ft 14 kts 259°
2026-05-01 11:02 49.19291 -123.19562 18 ft 16 kts 260°
2026-05-01 11:03 49.19272 -123.19726 19 ft 15 kts 260°
2026-05-01 11:03 49.19255 -123.19883 20 ft 14 kts 259°
2026-05-01 11:03 49.19234 -123.20032 21 ft 13 kts 258°
2026-05-01 11:03 49.19215 -123.20171 21 ft 13 kts 258°
2026-05-01 11:04 49.19197 -123.20306 22 ft 12 kts 261°
2026-05-01 11:04 49.19188 -123.20394 22 ft 7 kts 261°
2026-05-01 11:04 49.19184 -123.20515 23 ft 15 kts 276°
2026-05-01 11:04 49.19202 -123.20688 23 ft 11 kts 281°
2026-05-01 11:05 49.19202 -123.20770 23 ft 0 kts 241°
2026-05-01 11:07 49.19170 -123.20820 22 ft 10 kts 207°
2026-05-01 11:07 49.19099 -123.20843 22 ft 10 kts 187°
2026-05-01 11:07 49.19030 -123.20829 22 ft 10 kts 142°
2026-05-01 11:07 49.19004 -123.20734 23 ft 10 kts 100°
2026-05-01 11:08 49.18968 -123.20413 23 ft 64 kts 99°
2026-05-01 11:08 49.18853 -123.19403 18 ft 127 kts 100°
2026-05-01 11:08 49.18530 -123.16146 822 ft 165 kts 80°
2026-05-01 11:09 49.19014 -123.14576 1423 ft 170 kts 47°
2026-05-01 11:09 49.20009 -123.13511 1909 ft 182 kts 31°
2026-05-01 11:09 49.21122 -123.12492 2421 ft 195 kts 31°
2026-05-01 11:10 49.23319 -123.09705 3603 ft 215 kts 42°
2026-05-01 11:10 49.24481 -123.08115 3907 ft 239 kts 42°
2026-05-01 11:10 49.25737 -123.06376 4520 ft 249 kts 42°
2026-05-01 11:10 49.27074 -123.04578 4981 ft 264 kts 41°
2026-05-01 11:11 49.28469 -123.02734 5662 ft 270 kts 41°
2026-05-01 11:11 49.29886 -123.00849 6385 ft 274 kts 42°
2026-05-01 11:11 49.31321 -122.98919 7132 ft 279 kts 42°
2026-05-01 11:11 49.32788 -122.96935 7902 ft 282 kts 42°
2026-05-01 11:12 49.34258 -122.94943 8673 ft 286 kts 42°
2026-05-01 11:12 49.35751 -122.92918 9424 ft 290 kts 42°
2026-05-01 11:12 49.37262 -122.90867 10173 ft 295 kts 42°
2026-05-01 11:12 49.38823 -122.88747 10632 ft 311 kts 42°
2026-05-01 11:13 49.40481 -122.86491 11050 ft 328 kts 41°
2026-05-01 11:13 49.42230 -122.84113 11494 ft 344 kts 41°
2026-05-01 11:13 49.44062 -122.81621 11973 ft 359 kts 41°
2026-05-01 11:13 49.45940 -122.79063 12604 ft 369 kts 41°
2026-05-01 11:14 49.47864 -122.76439 13318 ft 376 kts 41°
2026-05-01 11:14 49.49823 -122.73764 14037 ft 383 kts 41°
2026-05-01 11:14 49.51814 -122.71041 14828 ft 387 kts 41°
2026-05-01 11:14 49.53836 -122.68273 15655 ft 391 kts 41°
2026-05-01 11:15 49.55867 -122.65490 16406 ft 396 kts 41°
2026-05-01 11:15 49.57905 -122.62692 17151 ft 400 kts 41°
2026-05-01 11:15 49.60002 -122.59812 17873 ft 404 kts 41°
2026-05-01 11:15 49.62082 -122.56954 18578 ft 409 kts 41°
2026-05-01 11:16 49.64219 -122.54016 19277 ft 414 kts 41°
2026-05-01 11:16 49.66371 -122.51028 19965 ft 418 kts 42°
2026-05-01 11:16 49.68422 -122.47874 20614 ft 424 kts 46°
2026-05-01 11:16 49.70381 -122.44442 21269 ft 428 kts 49°
2026-05-01 11:17 49.72276 -122.40888 21904 ft 432 kts 51°
2026-05-01 11:17 49.74167 -122.37241 22567 ft 436 kts 51°
2026-05-01 11:17 49.76046 -122.33588 23182 ft 439 kts 52°
2026-05-01 11:17 49.77930 -122.29926 24081 ft 435 kts 52°
2026-05-01 11:18 49.79814 -122.26277 24900 ft 433 kts 51°
2026-05-01 11:18 49.81679 -122.22677 25610 ft 432 kts 51°
2026-05-01 11:18 49.83554 -122.19067 26266 ft 432 kts 51°
2026-05-01 11:18 49.85197 -122.15905 26847 ft 432 kts 51°
2026-05-01 11:19 49.87081 -122.12281 27122 ft 434 kts 51°
2026-05-01 11:19 49.88991 -122.08605 27112 ft 431 kts 50°
2026-05-01 11:19 49.90851 -122.05022 27113 ft 427 kts 51°
2026-05-01 11:19 49.92699 -122.01452 27110 ft 427 kts 51°
2026-05-01 11:20 49.94559 -121.97855 27112 ft 429 kts 50°
2026-05-01 11:20 49.96421 -121.94252 27106 ft 429 kts 50°
2026-05-01 11:20 49.98279 -121.90655 27107 ft 430 kts 51°
2026-05-01 11:20 50.00161 -121.87005 27106 ft 429 kts 51°
2026-05-01 11:21 50.02002 -121.83425 27106 ft 429 kts 50°
2026-05-01 11:21 50.03864 -121.79807 27106 ft 429 kts 51°
2026-05-01 11:21 50.05714 -121.76138 27106 ft 429 kts 53°
2026-05-01 11:21 50.07292 -121.72259 27101 ft 429 kts 63°
2026-05-01 11:22 50.08356 -121.67923 27099 ft 429 kts 77°
2026-05-01 11:22 50.08796 -121.63397 27103 ft 427 kts 87°
2026-05-01 11:22 50.08907 -121.58756 27106 ft 427 kts 90°
2026-05-01 11:22 50.08921 -121.54143 27103 ft 426 kts 91°
2026-05-01 11:23 50.08906 -121.49593 27103 ft 426 kts 91°
2026-05-01 11:23 50.08883 -121.44939 27104 ft 427 kts 91°
2026-05-01 11:23 50.08860 -121.40361 27101 ft 424 kts 91°
2026-05-01 11:23 50.08842 -121.35867 27086 ft 416 kts 91°
2026-05-01 11:24 50.08827 -121.31382 26845 ft 408 kts 92°
2026-05-01 11:24 50.08811 -121.27016 26464 ft 404 kts 92°
2026-05-01 11:24 50.08776 -121.18253 25531 ft 410 kts 92°
2026-05-01 11:25 50.08758 -121.13859 25040 ft 407 kts 92°
2026-05-01 11:25 50.08721 -121.05142 24064 ft 400 kts 92°
2026-05-01 11:25 50.08699 -121.00824 23575 ft 397 kts 93°
2026-05-01 11:26 50.08673 -120.96601 23098 ft 394 kts 92°
2026-05-01 11:26 50.08617 -120.88163 22170 ft 387 kts 92°
2026-05-01 11:26 50.08589 -120.83988 21704 ft 384 kts 92°
2026-05-01 11:27 50.08559 -120.79847 21237 ft 381 kts 93°
2026-05-01 11:27 50.08528 -120.75798 20774 ft 379 kts 93°
2026-05-01 11:27 50.08496 -120.71732 20300 ft 376 kts 93°
2026-05-01 11:27 50.08464 -120.67674 19829 ft 373 kts 92°
2026-05-01 11:28 50.08432 -120.63641 19353 ft 371 kts 93°
2026-05-01 11:28 50.08398 -120.59682 18892 ft 368 kts 93°
2026-05-01 11:28 50.08362 -120.55717 18424 ft 366 kts 93°
2026-05-01 11:29 50.08286 -120.47863 17419 ft 364 kts 92°
2026-05-01 11:29 50.08247 -120.43951 16952 ft 361 kts 92°
2026-05-01 11:29 50.08171 -120.36262 16059 ft 355 kts 92°
2026-05-01 11:30 50.08131 -120.32443 15607 ft 352 kts 93°
2026-05-01 11:30 50.08091 -120.28736 15159 ft 350 kts 93°
2026-05-01 11:30 50.08049 -120.24966 14718 ft 347 kts 93°
2026-05-01 11:30 50.08009 -120.21404 14295 ft 344 kts 93°
2026-05-01 11:31 50.07966 -120.17744 13861 ft 341 kts 93°
2026-05-01 11:31 50.07920 -120.14043 13416 ft 339 kts 93°
2026-05-01 11:31 50.07874 -120.10435 12983 ft 337 kts 93°
2026-05-01 11:31 50.07827 -120.06820 12538 ft 335 kts 93°
2026-05-01 11:32 50.07777 -120.03207 12102 ft 332 kts 93°
2026-05-01 11:32 50.07726 -119.99613 11669 ft 330 kts 93°
2026-05-01 11:32 50.07676 -119.96102 11243 ft 327 kts 93°
2026-05-01 11:32 50.07625 -119.92592 10820 ft 325 kts 93°
2026-05-01 11:33 50.07574 -119.89083 10407 ft 322 kts 93°
2026-05-01 11:33 50.07524 -119.85651 10185 ft 312 kts 92°
2026-05-01 11:33 50.07476 -119.82335 10027 ft 302 kts 92°
2026-05-01 11:33 50.07430 -119.79098 9800 ft 294 kts 92°
2026-05-01 11:34 50.07422 -119.76006 9711 ft 282 kts 88°
2026-05-01 11:34 50.07753 -119.73085 9609 ft 273 kts 69°
2026-05-01 11:34 50.08827 -119.70774 9562 ft 261 kts 38°
2026-05-01 11:34 50.10357 -119.69376 9561 ft 251 kts 26°
2026-05-01 11:35 50.11924 -119.68134 9551 ft 252 kts 27°
2026-05-01 11:35 50.13331 -119.66957 9551 ft 253 kts 28°
2026-05-01 11:35 50.14813 -119.65689 9551 ft 252 kts 28°
2026-05-01 11:35 50.16342 -119.64379 9550 ft 253 kts 28°
2026-05-01 11:36 50.17901 -119.63046 9545 ft 253 kts 28°
2026-05-01 11:36 50.19448 -119.61725 9549 ft 253 kts 28°
2026-05-01 11:36 50.20978 -119.60420 9532 ft 252 kts 28°
2026-05-01 11:36 50.22500 -119.59109 9262 ft 248 kts 31°
2026-05-01 11:37 50.23873 -119.57516 8863 ft 249 kts 49°
2026-05-01 11:37 50.24666 -119.55179 8452 ft 244 kts 81°
2026-05-01 11:37 50.24829 -119.52589 8088 ft 241 kts 89°
2026-05-01 11:37 50.24914 -119.50002 7736 ft 239 kts 88°
2026-05-01 11:38 50.25018 -119.47424 7395 ft 237 kts 90°
2026-05-01 11:38 50.24863 -119.44897 7027 ft 234 kts 109°
2026-05-01 11:38 50.23978 -119.42817 6626 ft 230 kts 142°
2026-05-01 11:38 50.22578 -119.41700 6290 ft 230 kts 163°
2026-05-01 11:39 50.21009 -119.41236 5993 ft 230 kts 174°
2026-05-01 11:39 50.19417 -119.41031 5719 ft 229 kts 175°
2026-05-01 11:39 50.17841 -119.40854 5436 ft 229 kts 175°
2026-05-01 11:39 50.16262 -119.40654 5171 ft 225 kts 174°
2026-05-01 11:40 50.14737 -119.40444 4938 ft 218 kts 174°
2026-05-01 11:40 50.13261 -119.40242 4768 ft 209 kts 174°
2026-05-01 11:40 50.11840 -119.40046 4616 ft 201 kts 174°
2026-05-01 11:40 50.10458 -119.39851 4357 ft 199 kts 174°
2026-05-01 11:41 50.09069 -119.39654 4055 ft 199 kts 173°
2026-05-01 11:41 50.07736 -119.39468 3779 ft 187 kts 173°
2026-05-01 11:41 50.06492 -119.39295 3521 ft 176 kts 173°
2026-05-01 11:41 50.05307 -119.39127 3271 ft 167 kts 173°
2026-05-01 11:42 50.04203 -119.38975 3048 ft 155 kts 173°
2026-05-01 11:42 50.03164 -119.38832 2824 ft 145 kts 173°
2026-05-01 11:42 50.02161 -119.38689 2619 ft 143 kts 173°
2026-05-01 11:42 50.01171 -119.38546 2422 ft 143 kts 173°
2026-05-01 11:43 50.00181 -119.38414 2228 ft 143 kts 174°
2026-05-01 11:43 49.99195 -119.38277 1998 ft 145 kts 172°
2026-05-01 11:43 49.98192 -119.38139 1792 ft 144 kts 174°
2026-05-01 11:44 49.96211 -119.37861 1394 ft 140 kts 174°
2026-05-01 11:44 49.95383 -119.37744 1367 ft 86 kts 175°
2026-05-01 11:44 49.94974 -119.37688 1360 ft 43 kts 177°
2026-05-01 11:44 49.94749 -119.37653 1359 ft 25 kts 173°
2026-05-01 11:45 49.94638 -119.37665 1360 ft 2 kts 148°
2026-05-01 11:45 49.94675 -119.37651 1359 ft 17 kts 358°
2026-05-01 11:45 49.94772 -119.37743 1359 ft 9 kts 310°
2026-05-01 11:45 49.94819 -119.37807 1359 ft 9 kts 340°
2026-05-01 11:46 49.94881 -119.37819 1359 ft 8 kts 354°
2026-05-01 11:46 49.94941 -119.37829 1360 ft 7 kts 342°
2026-05-01 11:46 49.94976 -119.37899 1360 ft 8 kts 300°
2026-05-01 11:46 49.95005 -119.37975 1360 ft 6 kts 298°
2026-05-01 11:47 49.95013 -119.37995 1361 ft 1 kts 305°
2026-05-01 11:47 49.95018 -119.38004 1361 ft 0 kts 316°
2026-05-01 11:47 49.95020 -119.38006 1361 ft 0 kts 319°